Theta_e
330 329 319 317 306 305 300 305 314 314 315 322 327 325 325 331 324 314 342 348 353 353 355 359 362 359 358 357 360 361 360 360 360 360 359 359 359 359 359 359 358 358 357 357 357 356 355 355 354
320 321 314 308 299 295 300 309 311 317 321 324 331 331 330 327 337 337 340 349 354 356 357 358 362 361 358 356 358 360 361 360 360 360 358 358 358 358 359 359 358 358 357 357 356 356 354 353 352
328 316 307 302 298 293 300 310 313 317 322 322 325 333 330 325 334 340 344 350 352 353 356 358 361 361 358 356 357 359 360 360 360 359 357 357 358 358 359 359 359 358 356 356 356 356 355 355 354
316 308 303 297 294 298 305 312 315 318 321 326 327 323 327 335 335 342 345 350 350 352 355 360 361 360 360 357 357 357 358 359 358 357 357 357 356 356 358 358 358 358 358 357 356 356 356 355 355
305 301 295 291 292 299 310 315 319 317 320 320 324 317 320 331 341 345 346 349 351 354 355 357 362 362 361 358 358 358 357 357 358 358 357 356 356 355 356 357 358 358 358 359 358 358 358 358 357
302 299 292 290 292 299 312 316 318 316 317 317 317 317 320 334 338 344 348 348 352 351 352 353 360 362 361 360 359 359 357 357 357 358 358 357 357 356 355 355 355 356 356 356 357 359 359 358 358
299 295 292 291 294 306 313 316 314 317 315 315 318 314 323 332 339 344 346 347 348 347 346 345 348 354 359 360 360 359 358 358 358 357 356 356 356 356 356 355 356 356 357 357 358 358 358 358 358
299 296 289 290 295 302 313 316 318 317 317 323 321 318 321 330 338 343 343 342 341 338 338 339 342 343 349 351 358 359 359 359 358 357 357 356 356 356 356 354 353 355 357 357 357 357 357 357 356
298 294 290 291 296 302 312 311 318 323 319 323 327 324 329 336 339 336 334 335 335 334 332 335 337 342 344 347 350 352 354 357 357 356 356 355 350 348 349 350 353 355 357 358 358 357 357 356 356
297 292 293 298 299 305 310 312 317 317 321 323 326 332 335 336 334 329 329 328 329 329 329 333 339 343 341 340 343 344 345 345 347 348 348 347 346 345 348 349 351 352 354 356 357 357 356 356 353
295 295 297 300 301 306 306 305 313 316 313 322 324 328 331 331 330 325 325 328 328 329 329 330 335 337 332 336 337 338 340 342 344 346 346 344 343 344 346 344 345 337 347 348 352 352 352 351 347
297 297 299 301 302 306 306 309 311 311 314 323 331 331 332 330 327 324 325 327 326 325 327 330 334 338 333 333 335 336 338 340 335 339 344 344 343 340 335 332 331 331 333 342 346 346 347 345 339
295 296 298 301 301 302 311 310 311 311 321 326 328 330 328 324 323 327 327 326 327 330 330 330 331 331 333 331 331 329 329 331 332 333 334 334 331 330 328 329 324 324 326 334 341 342 342 340 336
297 297 297 300 299 305 310 310 312 313 323 322 323 322 322 325 325 325 327 329 332 331 330 329 327 328 327 325 325 326 326 328 326 327 327 328 327 325 326 324 320 322 324 326 328 333 334 333 331
297 295 297 298 299 305 306 302 308 314 322 323 323 324 327 328 328 327 328 329 329 329 328 326 327 325 324 324 324 324 325 324 324 324 325 325 324 322 323 321 319 322 324 322 322 321 323 322 321
296 294 290 295 298 302 299 292 309 313 319 318 323 326 328 328 329 328 327 326 326 325 324 325 328 324 322 322 322 323 323 323 323 324 325 327 327 326 325 323 324 324 324 323 322 322 322 321 320
293 291 291 295 297 298 297 295 310 313 315 316 319 323 323 322 323 324 326 325 324 323 323 323 323 322 321 321 320 319 321 321 323 323 324 326 326 326 325 325 325 325 323 322 321 321 321 320 321
290 290 292 292 295 296 295 295 310 311 313 313 314 317 319 319 321 323 324 324 323 323 322 322 322 321 320 319 318 318 318 320 321 322 323 325 325 326 325 325 325 325 323 321 320 320 322 321 320
295 293 292 296 297 296 295 296 308 310 310 310 311 313 315 316 319 320 322 323 323 322 321 320 320 320 318 317 314 312 311 314 316 320 323 323 323 324 323 324 324 325 323 322 321 320 317 317 322
295 292 291 295 297 294 295 294 302 306 307 309 311 312 313 314 316 319 320 321 322 320 321 321 320 320 318 315 314 313 312 313 316 319 321 322 323 323 323 322 322 323 323 322 319 316 314 314 320
293 292 292 293 295 293 291 289 295 302 305 309 311 312 313 314 314 316 318 319 320 319 320 321 320 319 319 314 313 311 311 311 310 312 314 317 321 323 323 322 320 320 320 318 318 318 315 309 312
290 297 296 295 291 287 290 283 288 295 300 306 308 308 310 311 312 312 314 315 318 319 320 320 319 317 315 315 313 310 307 305 306 307 310 311 314 318 321 322 321 319 319 319 319 321 319 315 312
295 298 293 293 288 285 288 284 286 296 297 300 302 306 307 308 308 308 307 310 309 307 309 314 313 311 309 309 309 308 308 308 309 309 309 311 312 312 314 316 317 319 318 318 318 319 319 317 315
297 293 290 288 286 282 285 286 287 292 296 298 302 304 304 302 302 303 304 304 303 304 303 303 304 304 305 306 307 306 306 305 305 305 305 307 308 310 311 312 314 316 316 317 317 317 317 317 316
294 288 282 281 281 282 287 289 290 295 298 300 301 302 300 301 299 300 300 300 303 303 303 304 303 303 304 305 305 304 304 303 303 304 304 305 306 307 308 310 312 313 313 314 313 313 314 315 316
289 288 283 279 279 282 288 286 291 298 299 300 300 300 301 298 296 298 299 300 301 302 302 303 302 302 302 302 302 303 302 301 302 302 303 304 304 306 308 309 310 311 313 312 312 311 312 312 313
291 287 289 285 283 282 284 290 297 298 297 298 299 300 295 295 296 297 299 300 300 301 302 301 301 301 301 301 301 301 302 302 301 302 303 302 303 304 306 305 306 308 309 310 312 311 311 311 309
291 294 286 285 280 280 283 284 288 294 296 297 296 294 295 295 296 296 298 300 300 301 301 301 301 300 301 301 301 302 301 301 301 301 300 301 302 302 303 304 305 306 308 309 310 309 310 309 309
291 290 287 287 285 280 280 283 291 293 295 295 294 294 294 295 296 296 296 298 300 300 300 300 300 300 300 301 300 300 300 300 300 300 301 301 301 302 302 303 305 306 306 306 306 307 307 306 306
293 289 288 284 283 283 282 284 294 293 294 295 295 295 295 296 297 297 295 298 299 299 300 300 300 300 300 301 300 299 300 300 299 300 301 302 301 302 303 304 305 305 307 308 306 305 306 305 305
Wind_Speed
4 4 2 3 6 7 2 2 2 3 2 2 4 4 4 4 5 4 2 1 4 6 2 6 7 8 8 9 10 11 11 11 11 10 9 9 9 9 9 9 8 8 8 8 8 8 7 7 7
3 4 3 2 7 5 5 1 5 7 2 2 2 2 3 5 5 2 1 1 5 5 4 5 8 9 8 7 7 8 9 9 9 9 9 8 7 8 7 6 6 5 4 5 5 5 5 4 3
4 1 4 6 4 3 4 4 6 3 3 2 2 3 4 2 5 2 1 5 6 6 5 6 10 9 9 8 6 5 6 7 7 8 7 7 6 6 6 4 3 3 1 2 2 1 0 1 1
3 4 5 7 2 1 2 6 4 7 3 4 2 4 3 2 4 2 4 4 4 3 4 8 8 8 9 8 6 5 4 3 3 4 5 5 5 4 4 2 0 1 3 2 2 3 3 4 4
4 4 5 4 4 3 2 5 7 6 6 3 2 2 4 6 7 3 5 6 5 1 3 4 6 7 8 8 8 8 7 6 5 5 4 4 3 3 3 2 4 4 4 4 4 5 6 6 6
5 4 6 4 5 3 3 5 7 4 2 3 6 5 4 5 7 4 3 4 5 5 7 7 4 2 3 5 8 9 9 8 7 6 6 5 5 4 4 5 6 7 6 6 8 8 8 7 7
7 5 2 1 2 2 6 5 3 6 3 2 6 5 5 6 6 4 3 5 6 4 5 5 5 8 7 5 3 2 2 2 2 4 4 5 5 6 5 6 7 8 7 9 10 10 10 9 9
6 5 2 1 2 4 6 7 2 6 1 1 5 7 5 7 5 4 4 6 6 6 6 6 6 5 4 4 7 4 3 3 4 6 6 6 6 6 5 6 8 10 10 11 11 12 12 10 9
4 6 1 2 4 3 5 4 3 2 7 3 4 6 4 8 7 4 4 4 4 4 6 6 6 5 4 2 4 6 8 8 7 4 6 5 2 4 7 8 10 11 12 13 14 13 12 10 9
5 4 5 6 5 6 8 6 8 4 4 5 2 6 10 8 5 5 4 4 3 3 5 5 4 5 6 5 5 4 4 3 3 3 3 3 3 4 5 10 12 11 14 14 15 13 11 9 3
2 6 5 2 4 6 7 5 3 11 1 7 14 10 10 6 6 6 3 3 2 3 3 5 5 5 5 4 3 2 2 2 3 4 3 3 2 3 2 3 4 4 7 4 4 5 3 4 2
0 3 3 5 5 7 6 6 5 2 6 5 9 10 6 7 6 5 4 5 4 3 5 6 6 4 5 3 3 2 2 1 3 3 4 2 2 3 3 2 3 2 3 3 2 2 3 3 2
1 2 1 7 10 7 8 5 8 4 5 9 7 7 9 8 6 4 4 4 3 6 5 6 5 5 4 4 2 1 3 3 3 5 5 3 4 3 2 2 3 3 4 3 3 2 2 3 4
3 5 4 8 6 4 9 4 5 3 6 8 10 7 7 8 7 6 5 4 4 4 4 2 4 3 4 4 5 3 3 3 4 3 3 4 2 3 4 4 4 4 3 3 3 3 2 2 3
3 5 5 4 4 3 8 4 3 5 6 9 8 7 6 6 7 7 7 7 6 3 2 1 2 4 6 5 3 3 3 4 4 3 4 5 4 4 4 4 4 4 4 5 5 4 3 3 3
6 7 3 5 5 7 2 4 3 4 9 8 7 6 6 4 5 5 7 7 6 5 4 1 2 4 3 2 2 2 3 3 3 3 3 5 5 5 4 4 3 4 4 5 5 4 4 3 3
8 1 2 2 3 4 3 2 7 5 7 7 5 5 5 3 3 4 6 7 7 5 4 2 1 2 3 4 4 4 4 3 3 3 2 3 4 4 4 3 3 4 4 4 5 5 3 4 4
2 3 3 3 3 0 4 5 14 8 7 6 5 4 4 5 8 7 7 5 5 5 3 3 1 2 2 3 3 3 2 1 0 1 0 2 2 2 3 2 2 2 3 3 4 6 7 4 5
5 4 3 3 4 2 4 5 18 12 7 7 5 5 6 7 6 6 6 5 5 4 3 3 3 4 1 2 3 3 3 3 2 3 3 3 4 4 4 3 3 2 2 3 5 2 8 9 7
4 3 2 5 3 3 6 2 5 6 3 6 6 6 7 5 7 7 6 6 5 3 3 5 6 6 5 3 2 2 2 2 3 3 4 5 5 5 4 4 4 5 3 4 4 2 3 6 5
1 3 2 5 5 3 4 4 3 2 4 7 6 5 4 8 8 7 6 7 5 5 6 7 7 7 6 5 4 4 3 3 4 4 4 4 6 5 6 6 5 5 4 4 4 4 7 5 6
2 3 2 4 2 2 3 4 0 2 3 8 8 6 7 7 6 5 7 7 7 8 5 7 7 6 5 6 4 3 2 3 3 4 4 8 6 8 8 7 5 5 3 4 4 5 4 6 8
4 4 3 2 2 4 6 5 5 3 3 5 7 7 8 8 8 9 9 6 4 4 5 3 4 5 5 5 3 3 4 3 3 5 6 7 7 6 8 7 7 7 5 6 7 7 9 8 7
3 1 6 5 4 4 2 4 5 2 6 5 5 8 7 5 4 2 2 3 5 5 5 5 5 3 4 4 4 4 6 8 7 7 8 8 7 8 7 8 7 9 6 6 5 5 6 8 10
9 8 6 7 7 4 4 2 7 4 4 5 9 7 6 5 2 3 5 4 1 3 4 3 6 6 7 7 7 7 8 8 8 8 8 10 8 7 9 7 8 7 6 5 4 5 3 3 2
4 5 6 2 1 6 4 2 5 3 3 5 5 7 4 4 3 2 0 2 1 4 4 4 4 6 7 7 7 6 6 4 6 6 7 7 6 7 9 8 7 7 6 6 5 3 3 4 3
2 0 3 7 2 2 4 5 6 3 3 3 5 5 4 2 3 1 1 2 3 3 4 4 6 7 6 6 6 7 8 9 9 10 8 7 9 8 9 8 8 8 7 6 5 3 4 3 3
2 5 4 4 0 3 5 5 6 5 8 3 4 3 1 2 1 3 5 4 3 4 4 6 6 7 5 6 8 9 9 9 9 8 10 10 9 9 9 9 8 7 7 7 5 4 4 4 3
3 2 6 5 5 5 3 7 5 7 7 7 5 2 2 1 2 6 6 4 4 5 6 7 6 6 8 9 10 10 10 9 9 9 11 10 10 10 9 9 9 8 7 7 6 6 6 6 5
1 1 5 7 3 1 3 9 2 3 4 6 5 2 1 2 5 5 5 4 6 7 7 8 5 6 8 9 11 11 10 10 10 11 11 10 10 10 10 10 10 9 8 8 8 8 7 7 7
Wind_Direction
135 143 106 52 56 64 316 253 92 194 278 229 89 20 78 11 36 145 25 53 76 84 98 135 130 132 127 133 129 125 125 123 121 118 115 112 107 102 101 102 106 107 108 107 106 103 102 107 111
141 124 42 78 78 59 275 138 174 212 197 98 87 118 60 64 41 105 132 165 98 111 117 134 135 129 131 133 132 132 131 131 128 125 123 116 108 107 102 99 100 99 104 110 106 109 119 117 109
172 89 79 87 100 152 208 146 182 80 106 131 57 9 19 359 300 228 175 138 131 129 150 155 147 141 145 146 138 135 135 130 125 122 118 112 104 91 89 90 96 100 97 60 60 62 64 155 185
133 21 33 80 304 312 236 145 151 119 28 314 147 69 67 341 275 92 149 154 116 131 141 139 141 139 139 145 138 130 113 110 118 115 114 109 103 94 90 106 155 219 229 196 208 270 287 297 276
42 56 56 63 301 298 8 134 135 133 147 207 219 79 2 329 324 208 163 164 140 121 103 100 133 142 150 155 157 155 157 162 170 171 162 146 143 153 165 201 238 252 275 301 287 268 258 258 267
45 94 44 11 321 340 55 157 133 107 82 126 83 85 262 282 275 317 22 33 39 60 32 17 32 100 162 177 179 175 174 174 181 186 188 192 197 208 215 232 250 256 257 254 252 252 262 258 270
109 82 184 213 283 97 164 166 169 92 127 49 135 94 279 287 261 32 32 61 33 40 58 78 26 358 11 1 344 333 308 289 219 217 226 223 224 226 236 255 260 264 258 253 256 255 252 256 257
101 90 80 271 204 170 175 171 76 101 44 93 145 159 219 241 116 111 92 77 59 43 32 29 33 17 8 8 348 353 339 320 315 313 296 285 277 279 269 265 273 276 269 265 264 260 260 260 259
118 59 338 217 171 215 138 119 47 88 100 51 323 158 188 109 113 107 77 75 61 41 21 32 8 2 23 350 7 26 356 351 336 317 313 309 311 308 297 271 268 273 272 266 260 258 261 265 268
93 104 235 184 176 182 173 123 134 85 85 24 40 51 93 117 134 113 97 86 98 73 29 30 24 47 67 60 37 30 12 353 321 314 294 285 297 282 287 293 289 288 285 270 263 261 257 262 262
124 182 215 112 115 142 132 90 100 119 58 203 169 159 144 140 110 125 116 103 119 94 74 24 40 83 87 71 26 15 353 348 326 312 279 257 282 280 286 316 316 312 309 298 293 283 268 265 300
267 231 255 121 105 118 123 113 73 74 215 197 152 145 123 104 129 163 131 83 92 80 32 30 28 95 80 79 43 340 6 346 348 336 344 1 328 328 347 318 269 339 337 317 319 287 290 286 298
334 47 68 66 54 54 78 44 125 42 47 97 116 117 123 125 117 78 81 72 63 52 42 32 24 50 95 108 142 67 37 48 48 44 28 31 0 328 314 324 360 3 339 346 348 341 327 315 314
324 65 67 50 54 59 112 135 60 277 98 103 118 121 127 140 142 117 96 91 80 90 69 44 57 60 86 101 87 83 79 86 71 66 45 52 14 357 330 350 346 352 359 0 26 24 14 5 357
49 58 44 126 133 85 104 11 175 133 116 117 117 132 124 118 119 145 156 146 153 163 153 60 55 53 61 69 77 79 84 86 87 88 74 84 68 50 25 16 7 359 2 7 12 14 21 23 1
51 54 77 314 128 183 48 234 185 143 137 133 142 140 109 113 146 174 161 152 185 174 176 244 41 63 45 30 27 35 48 79 112 114 111 110 101 101 99 106 60 17 29 20 18 7 347 349 346
8 94 83 30 27 162 196 186 185 164 150 145 142 133 143 164 170 232 199 184 191 198 185 207 327 15 1 11 7 357 3 46 26 10 31 96 104 108 103 88 92 104 82 51 24 6 4 328 327
232 105 40 89 331 275 172 195 170 170 163 158 162 169 164 199 217 230 224 217 204 216 219 249 284 309 336 334 311 294 308 286 177 280 339 42 21 54 92 90 70 62 88 85 57 21 4 355 314
101 83 26 308 16 322 226 180 177 170 162 169 183 194 202 224 274 272 280 273 241 239 235 266 276 255 281 284 259 264 257 286 309 298 274 232 219 212 210 206 190 181 222 198 142 80 0 343 355
79 100 333 293 313 50 4 73 153 154 151 155 179 215 215 232 253 253 263 264 261 335 283 276 271 266 254 238 260 264 269 288 277 271 267 259 244 232 230 220 229 220 211 225 244 152 181 298 334
81 134 253 225 341 52 12 46 88 124 113 134 183 228 235 223 226 245 261 253 268 263 250 254 261 267 273 346 335 335 315 336 337 343 320 309 291 243 221 223 225 231 206 224 211 173 174 232 280
16 220 245 272 71 226 41 267 56 321 161 172 185 212 229 250 263 254 244 254 247 254 273 268 288 312 347 348 346 355 265 282 249 262 268 296 287 292 295 278 256 236 226 233 222 184 185 178 232
221 15 32 359 99 83 3 82 258 149 125 175 198 213 220 229 238 246 246 247 333 326 316 321 348 1 341 348 335 309 306 258 268 291 299 295 288 256 262 263 272 263 228 228 227 219 200 196 212
330 43 46 56 74 48 332 124 294 228 190 172 192 210 209 192 224 357 15 354 335 20 33 28 44 28 8 7 352 334 311 305 315 314 315 309 309 307 295 277 259 251 237 218 215 237 219 226 210
48 44 345 1 12 224 332 75 240 284 228 215 194 183 175 188 32 341 339 349 35 6 36 29 24 358 344 333 321 320 311 311 298 293 293 296 296 299 300 306 293 264 243 230 208 230 228 238 244
46 128 149 266 282 277 316 301 270 232 38 63 97 153 141 43 347 56 269 202 96 51 18 9 351 324 311 307 306 301 287 274 282 279 291 289 285 290 298 302 304 285 253 229 212 210 201 203 205
151 69 167 104 5 28 276 293 328 151 120 97 116 106 54 65 111 52 180 3 340 332 312 308 306 293 304 317 312 311 302 304 301 298 290 286 288 286 288 297 297 297 281 257 231 219 220 204 214
139 148 48 12 216 307 304 292 240 233 234 153 161 118 76 156 62 327 254 265 273 276 298 312 308 305 307 310 309 306 296 291 285 289 286 283 284 286 286 285 281 269 262 251 226 217 217 202 215
29 2 55 110 121 171 280 268 214 257 253 191 194 229 277 207 297 304 307 288 295 319 308 301 309 322 314 305 296 291 293 289 288 288 287 285 283 279 278 281 277 273 257 237 225 224 224 216 217
149 136 117 113 247 110 151 272 279 282 163 153 198 278 241 304 301 301 321 322 317 300 304 298 303 293 296 300 299 297 291 289 283 280 280 279 274 276 276 275 273 274 269 249 216 209 206 210 220